{"data":{"norad_id":66240,"epoch":"2026-09-20T22:39:08.709984Z","epoch_age_seconds":58336,"freshness":"FRESH","line1":"1 66240U 25245G   26263.94385081  .00015703  00000+0  47458-3 0  9999","line2":"2 66240  53.1586  95.3452 0000864  80.4956 279.6144 15.34421256 51176","mean_motion":15.34421256,"eccentricity":8.64e-5,"inclination_deg":53.1586,"raan_deg":95.3452,"arg_perigee_deg":80.4956,"mean_anomaly_deg":279.6144,"bstar":0.00047458,"rev_number":5117,"period_min":93.846458028994,"perigee_km":462.04902048663,"apogee_km":463.23110676322,"semimajor_km":6840.7770636249,"source":"CELESTRAK","updated_at":"2026-09-21T09:00:35.846732Z"}}